sat.trackr.live / text

‹ back to catalog

FLOCK 4G-13

NORAD 62621 · 2025-009N

PAYLOAD ACTIVE UNKNOWN

§ Identity

Operator
Country
US
Launch date
2025-01-14
Launch site
AFWTR
Launch vehicle
Mass (kg)
RCS (m²)

Purposes: earth_obs

External: N2YO · Heavens-Above · Gunter

§ Orbital elements

Epoch: 2026-09-11T18:04:09.475680Z

Period
92.27 min
Inclination
97.3884°
Eccentricity
0.0002599
Mean motion
15.60601301 rev/d
Perigee alt
384.2 km
Apogee alt
387.7 km
Semi-major
6,764.1 km
B*
1.5942e-3
RAAN
340.4668°
Arg perigee
286.9493°
Mean anomaly
73.1479°
Rev number
9,242

§ Raw data

FLOCK 4G-131 62621U 25009N   26254.75288745  .00133604  00000+0  15942-2 0  99972 62621  97.3884 340.4668 0002599 286.9493  73.1479 15.60601301 92426

JSON: /api/v1/satellites/62621 · /tle

For live sub-satellite position, see the globe view (requires WebGL).

§ Visibility from observer

Set your observer location to see the next 7 days of passes ≥ 10°. The values pass through the URL so the page stays shareable.

No JS? Fill the form by hand. The geolocation button needs JavaScript.